This demonstration page uses our WeatherBlox Daily Observations layout. Learn more.

Left ArrowRight Arrow

Hourly Observations for February 24, 2015

Temp ( °F °C ) Dew Point ( °F °C ) Humidity (%) Winds ( mph kmh ) Pressure ( in mb ) Visibility ( mi km ) Precip ( " mm )
12:53 am 00:53 Clear with Light Snow -12 -24.4 -16 -26.7 81 81 N N/A 30.43 1031 10 16.0934 N/A
1:53 am 01:53 Clear with Light Snow -12 -24.4 -17 -27.2 78 78 N N/A 30.4 1030 9 14.48406 N/A
2:53 am 02:53 Clear -14 -25.6 -18 -27.8 82 82 N N/A 30.38 1029 9 14.48406 N/A
3:53 am 03:53 Clear with Light Snow -16 -26.7 -20 -28.9 82 82 N N/A 30.35 1028 9 14.48406 N/A
4:53 am 04:53 Clear -19 -28.3 -23 -30.6 81 81 N N/A 30.34 1027 9 14.48406 N/A
5:53 am 05:53 Clear with Light Snow -17 -27.2 -24 -31.1 69 69 N N/A 30.29 1026 8 12.87472 N/A
6:53 am 06:53 Clear with Light Snow -18 -27.8 -25 -31.7 69 69 N N/A 30.28 1025 9 14.48406 N/A
7:53 am 07:53 Sunny -19 -28.3 -24 -31.1 77 77 N N/A 30.25 1024 7 11.26538 N/A
8:53 am 08:53 Sunny with Mist and Fog -7 -21.7 -11 -23.9 82 82 N N/A 30.22 1024 6 9.65604 N/A
9:53 am 09:53 Hazy 3 -16.1 -4 -20 72 72 N N/A 30.19 1022 5 8.0467 N/A
10:53 am 10:53 Sunny 10 -12.2 -1 -18.3 61 61 WSW 3 6 30.15 1021 10 16.0934 N/A
11:53 am 11:53 Sunny 20 -6.7 4 -15.6 50 50 WSW 8 13 30.1 1019 10 16.0934 N/A
12:53 pm 12:53 Sunny 23 -5 3 -16.1 42 42 WSW 12 19 30.05 1018 10 16.0934 N/A
1:53 pm 13:53 Sunny 26 -3.3 3 -16.1 37 37 SSW 10 17 29.99 1016 10 16.0934 N/A
2:53 pm 14:53 Sunny 28 -2.2 2 -16.7 32 32 SW 12 19 29.95 1014 10 16.0934 N/A
3:53 pm 15:53 Sunny 29 -1.7 3 -16.1 33 33 SW 14 22 29.93 1013 10 16.0934 N/A
4:53 pm 16:53 Sunny 29 -1.7 4 -15.6 34 34 SSW 14 22 29.89 1012 10 16.0934 N/A
5:53 pm 17:53 Sunny 28 -2.2 5 -15 37 37 SW 10 17 29.88 1012 10 16.0934 N/A
6:53 pm 18:53 Clear 26 -3.3 6 -14.4 42 42 WSW 8 13 29.91 1013 10 16.0934 N/A
7:53 pm 19:53 Mostly Clear 23 -5 6 -14.4 48 48 WSW 7 11 29.93 1014 10 16.0934 N/A
8:53 pm 20:53 Cloudy 26 -3.3 7 -13.9 44 44 WSW 8 13 29.93 1013 10 16.0934 N/A
9:53 pm 21:53 Cloudy 26 -3.3 8 -13.3 46 46 WSW 10 17 29.93 1013 10 16.0934 N/A
10:53 pm 22:53 Mostly Cloudy 24 -4.4 9 -12.8 52 52 SW 5 7 29.93 1014 10 16.0934 N/A
11:53 pm 23:53 Cloudy 26 -3.3 10 -12.2 51 51 WSW 8 13 29.91 1013 10 16.0934 N/A

Powered by AerisWeather